Bluefield, WV

7:01 PM EST on February 23, 2017 (GMT -0500)
Mercer County

Weather History for KBLF - March, 2014

Change the Weather History Date:

Tuesday, March 18, 2014

  Actual Average Record
Temperature  
Mean Temperature 36 °F 46 °F  
Max Temperature 44 °F 55 °F 73 °F (1982)
Min Temperature 28 °F 37 °F 8 °F (1967)
Degree Days  
Heating Degree Days 29 19  
Month to date heating degree days 419 394  
Since 1 July heating degree days 4054 3887  
Cooling Degree Days 0 0  
Month to date cooling degree days 0 0  
Year to date cooling degree days 0 0  
Moisture  
Dew Point 30 °F    
Average Humidity 78    
Maximum Humidity 85    
Minimum Humidity 70    
Precipitation  
Precipitation 0.00 in 0.12 in 0.70 in (1983)
Month to date precipitation 1.35 2.02  
Year to date precipitation 5.48 7.68  
Snow  
Snow 0.00 in - - ()
Month to date snowfall 6.0  
Since 1 July snowfall 43.6  
Snow Depth 0.00 in    
Sea Level Pressure  
Sea Level Pressure 30.01 in    
Wind  
Wind Speed 8 mph (ESE)    
Max Wind Speed 20 mph    
Max Gust Speed 32 mph    
Visibility 10 miles    
Events      
T = Trace of Precipitation, MM = Missing Value Source: NWS Daily Summary

Daily Weather History Graph

Daily Weather History Graph

Search for Another Location

Airport or City:

Trip Planner

Search our weather history database for the weather conditions in past years. The results will help you decide how hot, cold, wet, or windy it might be!

Date:

Astronomy

Mar. 18, 2014 Rise Set
Actual Time 7:31 AM EDT 7:34 PM EDT
Civil Twilight 7:05 AM EDT 8:00 PM EDT
Nautical Twilight 6:35 AM EDT 8:31 PM EDT
Astronomical Twilight 6:04 AM EDT 9:02 PM EDT
Moon 9:47 PM EDT (3/18) 8:22 AM EDT (3/18)
Length of Visible Light 12h 55m
Length of Day
12h 03m
Waning Gibbous, 96% of the Moon is Illuminated
Mar 18
Waning Gibbous
Mar 23
Last Quarter
Mar 30
New
Apr 7
First Quarter
Apr 15
Full

Hourly Weather History & Observations

Time (EDT) Temp. Windchill Dew Point Humidity Pressure Visibility Wind Dir Wind Speed Gust Speed Precip Events Conditions
12:52 AM 28.0 °F 21.7 °F 23.0 °F 81% 29.93 in 10.0 mi East 5.8 mph - N/A   Overcast
1:52 AM 28.0 °F 19.3 °F 23.0 °F 81% 29.95 in 10.0 mi East 9.2 mph - N/A   Overcast
2:52 AM 28.0 °F 20.8 °F 24.1 °F 85% 29.94 in 10.0 mi ESE 6.9 mph - N/A   Overcast
3:52 AM 28.9 °F 23.9 °F 24.1 °F 82% 29.92 in 10.0 mi Variable 4.6 mph - N/A   Overcast
4:52 AM 28.9 °F 22.8 °F 25.0 °F 85% 29.92 in 10.0 mi East 5.8 mph - N/A   Overcast
5:52 AM 28.9 °F 21.9 °F 24.1 °F 82% 29.92 in 10.0 mi East 6.9 mph - N/A   Overcast
6:52 AM 28.9 °F 22.8 °F 25.0 °F 85% 29.93 in 10.0 mi East 5.8 mph - N/A   Overcast
7:48 AM 30.2 °F 24.3 °F 24.8 °F 80% 29.90 in 10.0 mi Variable 5.8 mph - N/A   Overcast
7:52 AM 30.0 °F 22.4 °F 25.0 °F 82% 29.96 in 10.0 mi East 8.1 mph - N/A   Overcast
8:52 AM 30.0 °F 23.2 °F 26.1 °F 85% 29.99 in 10.0 mi East 6.9 mph - N/A   Overcast
9:52 AM 30.9 °F 25.2 °F 27.0 °F 85% 30.01 in 5.0 mi East 5.8 mph - N/A   Overcast
10:18 AM 32.0 °F 24.2 °F 27.0 °F 82% 29.96 in 8.0 mi ESE 9.2 mph - N/A   Overcast
10:52 AM 33.1 °F 28.7 °F 28.9 °F 85% 30.03 in 10.0 mi East 4.6 mph - N/A   Overcast
11:17 AM 34.0 °F 28.0 °F 28.9 °F 82% 29.98 in 10.0 mi SE 6.9 mph - N/A   Overcast
11:52 AM 34.0 °F 28.0 °F 28.9 °F 82% 30.04 in 10.0 mi Variable 6.9 mph - N/A   Overcast
12:52 PM 36.0 °F 28.5 °F 30.0 °F 79% 30.06 in 10.0 mi SE 10.4 mph - N/A   Overcast
1:35 PM 37.9 °F 35.5 °F 30.9 °F 76% 30.04 in 10.0 mi Variable 3.5 mph - N/A   Overcast
1:47 PM 39.2 °F 32.5 °F 32.0 °F 75% 30.04 in 10.0 mi ESE 10.4 mph - N/A   Overcast
1:52 PM 39.0 °F 34.8 °F 32.0 °F 76% 30.07 in 10.0 mi Variable 5.8 mph - N/A   Overcast
2:22 PM 41.0 °F 36.4 °F 33.1 °F 73% 30.04 in 10.0 mi East 6.9 mph - N/A   Overcast
2:52 PM 41.0 °F 35.2 °F 32.0 °F 70% 30.06 in 10.0 mi ESE 9.2 mph 18.4 mph N/A   Overcast
3:30 PM 42.1 °F 36.6 °F 32.0 °F 67% 30.02 in 10.0 mi SE 9.2 mph 16.1 mph N/A   Scattered Clouds
3:52 PM 43.0 °F - 33.1 °F 68% 30.05 in 10.0 mi North - - N/A   Mostly Cloudy
4:22 PM 43.0 °F 38.8 °F 33.1 °F 68% 30.01 in 10.0 mi Variable 6.9 mph - N/A   Scattered Clouds
4:30 PM 44.1 °F 39.0 °F 33.1 °F 65% 30.01 in 10.0 mi ESE 9.2 mph - N/A   Mostly Cloudy
4:44 PM 43.0 °F 38.2 °F 33.1 °F 68% 30.01 in 10.0 mi East 8.1 mph - N/A   Scattered Clouds
4:52 PM 42.1 °F 37.1 °F 33.1 °F 70% 30.05 in 10.0 mi ESE 8.1 mph - N/A   Mostly Cloudy
5:38 PM 43.0 °F 36.4 °F 33.1 °F 68% 30.00 in 10.0 mi SSE 12.7 mph 18.4 mph N/A   Scattered Clouds
5:52 PM 43.0 °F 37.2 °F 33.1 °F 68% 30.04 in 10.0 mi South 10.4 mph - N/A   Partly Cloudy
6:52 PM 41.0 °F 34.3 °F 33.1 °F 73% 30.04 in 10.0 mi SSE 11.5 mph 18.4 mph N/A   Partly Cloudy
7:32 PM 39.0 °F 32.3 °F 33.1 °F 79% 30.01 in 10.0 mi SE 10.4 mph - N/A   Mostly Cloudy
7:52 PM 39.0 °F 32.3 °F 33.1 °F 79% 30.04 in 10.0 mi ESE 10.4 mph 17.3 mph N/A   Overcast
8:52 PM 37.9 °F 31.5 °F 33.1 °F 83% 30.05 in 10.0 mi East 9.2 mph 16.1 mph N/A   Overcast
9:52 PM 37.9 °F 30.9 °F 33.1 °F 83% 30.07 in 10.0 mi SSE 10.4 mph 21.9 mph N/A   Overcast
10:52 PM 37.9 °F 30.9 °F 33.1 °F 83% 30.07 in 10.0 mi SSE 10.4 mph 21.9 mph N/A   Overcast
11:52 PM 39.0 °F 29.6 °F 34.0 °F 82% 30.05 in 10.0 mi SE 18.4 mph 32.2 mph N/A   Overcast